Regional Weather Roundup
Issued by NWS Green Bay, WI

Home | Current Version | Previous Version | Graphics & Text | Print | Product List | Glossary Off
Versions: 1 2 3 4 5 6 7 8 9 10 11 12 13 14 15 16 17 18 19 20 21 22 23 24 25 26 27 28 29 30 31 32 33 34 35 36 37 38 39 40 41 42 43 44 45 46 47 48 49 50

000
ASUS43 KGRB 272300
RWRGRB

NORTH-CENTRAL AND NORTHEAST WISCONSIN REGIONAL WEATHER ROUNDUP
NATIONAL WEATHER SERVICE GREEN BAY WI
600 PM CDT WED JUL 27 2016

WIZ005-009-010>012-018-019-280000-
NORTH CENTRAL WISCONSIN

CITY           SKY/WX    TMP DP  RH WIND       PRES   REMARKS
IRONWOOD       CLOUDY    66  66 100 NE3       29.99F
MANITOWISH WTR NOT AVBL
ARBOR VITAE    NOT AVBL
EAGLE RIVER    NOT AVBL
LAND O LAKES   NOT AVBL
RHINELANDER    CLOUDY    71  66  84 E3        30.01S
PHILLIPS       RAIN      65  65  98 N3        29.99F
ANTIGO         NOT AVBL
TOMAHAWK       NOT AVBL
MERRILL        NOT AVBL
$$

WIZ013-073-280000-
NORTHEAST WISCONSIN

CITY           SKY/WX    TMP DP  RH WIND       PRES   REMARKS
IRON MOUNTAIN  CLOUDY    72  64  76 N5        29.99S
MARINETTE      CLOUDY   N/A N/A N/A CALM      29.98R
$$

WIZ017-030-035>037-045-280000-
CENTRAL WISCONSIN

CITY           SKY/WX    TMP DP  RH WIND       PRES   REMARKS
MEDFORD        NOT AVBL
WAUSAU         LGT RAIN  74  70  87 E6        29.94S
MOSINEE        RAIN      73  70  88 SW6       29.97S
MARSHFIELD     CLOUDY    74  66  76 S5        29.94F
WISC RAPIDS    TSTM      72  67  84 SW6G22    29.96S VSB 3/4
STEVENS POINT  NOT AVBL
WAUPACA        NOT AVBL
SHAWANO        NOT AVBL
CLINTONVILLE   CLOUDY    77  64  65 SE6       29.95F
WAUTOMA        CLOUDY    76  69  79 S5        29.96S
$$

WIZ038-039-048-051-280000-
FOX VALLEY

CITY           SKY/WX    TMP DP  RH WIND       PRES   REMARKS
NWS GREEN BAY  CLOUDY    79  70  74 CALM      29.95F
APPLETON       PTSUNNY   77  64  65 VRB6      29.95S
OSHKOSH        CLOUDY    77  67  71 CALM      29.94F
FOND DU LAC    CLOUDY    76  68  76 S5        29.94F
$$

WIZ022-050-052-280000-
EAST CENTRAL WISCONSIN

CITY           SKY/WX    TMP DP  RH WIND       PRES   REMARKS
EPHRAIM        DRIZZLE   72  70  93 CALM      29.97F
WASHINGTON ISL NOT AVBL
STURGEON BAY   LGT RAIN  74  68  81 CALM      29.99S
MANITOWOC      NOT AVBL
SHEBOYGAN      CLOUDY    71  67  87 E6        29.94F
$$

LMZ563-521-522-541>543-280000-
LAKESHORE

STATION/POSITION TIME  TEMP    WIND        PRES    VSBY  WAVE
                       AIR SEA DIR/SP/G                  HT/PER
                 (UTC) (F)     (DEG/KT/KT) (MB)    (MI)  (FT/S)
SHEBOYGAN LKSHOR 2200   72     290/  6/  7 1014.7F
KEWAUNEE LKSHORE 2200   67     170/  7/  7 1014.5S
ALGOMA MARINA    2213             CALM       N/A
NORTHPORT PIER   2200   75     340/  4/  6 1014.6R
N MID LAKE BUOY  2150   71 71  200/  4/  4 1013.8R         1
S GREEN BAY BUOY 2200   75 75  190/  4/  6   N/A
SISTER BAY LKSHO 2221   75        CALM       N/A
CHAMBERS ISLAND  2200   74      80/  6/  8 1014.9R
MENOMINEE LKSHOR 2206   76      CALM  /  2 1014.1R
$$




USA.gov is the U.S. government's official web portal to all federal, state and local government web resources and services.